"Period start","avg(HW err(1)/warn(2) (#))","avg(Visibility (m))","avg(Weather code (#))","avg(Precip intensity (mm/h))","min(HW err(1)/warn(2) (#))","max(HW err(1)/warn(2) (#))","std(HW err(1)/warn(2) (#))","med(HW err(1)/warn(2) (#))","min(Visibility (m))","max(Visibility (m))","std(Visibility (m))","med(Visibility (m))","min(Weather code (#))","max(Weather code (#))","std(Weather code (#))","med(Weather code (#))","min(Precip intensity (mm/h))","max(Precip intensity (mm/h))","std(Precip intensity (mm/h))","med(Precip intensity (mm/h))"
2013-09-19 00:00:00,2,43004,0,0.00,2,2,0,2,31553,50000,4768,43296,0,0,0,0,0.00,0.00,0.00,0.00
2013-09-19 00:10:00,2,48810,0,0.00,2,2,0,2,41595,50000,2504,50000,0,0,0,0,0.00,0.00,0.00,0.00
2013-09-19 00:20:00,2,48606,0,0.00,2,2,0,2,41801,50000,2420,49714,0,0,0,0,0.00,0.00,0.00,0.00
2013-09-19 00:30:00,2,48494,0,0.00,2,2,0,2,39682,50000,3260,50000,0,0,0,0,0.00,0.00,0.00,0.00
2013-09-19 00:40:00,2,48094,0,0.00,2,2,0,2,39969,50000,3819,50000,0,0,0,0,0.00,0.00,0.00,0.00
2013-09-19 00:50:00,2,49345,0,0.00,2,2,0,2,47109,50000,1045,50000,0,0,0,0,0.00,0.00,0.00,0.00
2013-09-19 01:00:00,2,48672,0,0.00,2,2,0,2,46234,50000,1497,49257,0,0,0,0,0.00,0.00,0.00,0.00
2013-09-19 01:10:00,2,49051,0,0.00,2,2,0,2,44587,50000,1874,50000,0,0,0,0,0.00,0.00,0.00,0.00
2013-09-19 01:20:00,2,48776,0,0.00,2,2,0,2,40481,50000,2866,50000,0,0,0,0,0.00,0.00,0.00,0.00
2013-09-19 01:30:00,2,46534,0,0.00,2,2,0,2,40527,50000,3782,48638,0,0,0,0,0.00,0.00,0.00,0.00
2013-09-19 01:40:00,2,46135,0,0.00,2,2,0,2,39826,50000,4186,48644,0,0,0,0,0.00,0.00,0.00,0.00
2013-09-19 01:50:00,2,47176,0,0.00,2,2,0,2,42115,50000,2485,47504,0,0,0,0,0.00,0.00,0.00,0.00
2013-09-19 02:00:00,2,49739,0,0.00,2,2,0,2,47501,50000,747,50000,0,0,0,0,0.00,0.00,0.00,0.00
2013-09-19 02:10:00,2,47317,0,0.00,2,2,0,2,39426,50000,3947,50000,0,0,0,0,0.00,0.00,0.00,0.00
2013-09-19 02:20:00,2,37541,0,0.00,2,2,0,2,30380,50000,6643,37150,0,0,0,0,0.00,0.00,0.00,0.00
2013-09-19 02:30:00,2,45236,0,0.00,2,2,0,2,32752,50000,5266,47785,0,0,0,0,0.00,0.00,0.00,0.00
2013-09-19 02:40:00,2,43460,0,0.00,2,2,0,2,33202,50000,5342,43063,0,0,0,0,0.00,0.00,0.00,0.00
2013-09-19 02:50:00,2,47636,0,0.00,2,2,0,2,42408,50000,2292,48052,0,0,0,0,0.00,0.00,0.00,0.00
2013-09-19 03:00:00,2,46895,0,0.00,2,2,0,2,41557,50000,3464,48865,0,0,0,0,0.00,0.00,0.00,0.00
2013-09-19 03:10:00,2,40870,0,0.00,2,2,0,2,26023,50000,7816,43344,0,0,0,0,0.00,0.00,0.00,0.00
2013-09-19 03:20:00,2,44080,0,0.00,2,2,0,2,36046,50000,4594,43996,0,0,0,0,0.00,0.00,0.00,0.00
2013-09-19 03:30:00,2,46164,0,0.00,2,2,0,2,39536,50000,3890,46876,0,0,0,0,0.00,0.00,0.00,0.00
2013-09-19 03:40:00,2,44720,0,0.00,2,2,0,2,28900,50000,6369,47578,0,0,0,0,0.00,0.00,0.00,0.00
2013-09-19 03:50:00,2,44821,0,0.00,2,2,0,2,39579,50000,3972,44075,0,0,0,0,0.00,0.00,0.00,0.00
2013-09-19 04:00:00,2,40742,0,0.00,2,2,0,2,26287,50000,8263,39008,0,0,0,0,0.00,0.00,0.00,0.00
2013-09-19 04:10:00,2,44914,0,0.00,2,2,0,2,31032,50000,6880,49502,0,0,0,0,0.00,0.00,0.00,0.00
2013-09-19 04:20:00,2,44030,0,0.00,2,2,0,2,32976,50000,5138,44418,0,0,0,0,0.00,0.00,0.00,0.00
2013-09-19 04:30:00,2,44212,0,0.00,2,2,0,2,31334,50000,5652,45158,0,0,0,0,0.00,0.00,0.00,0.00
2013-09-19 04:40:00,2,44072,0,0.00,2,2,0,2,28265,50000,6542,45080,0,0,0,0,0.00,0.00,0.00,0.00
2013-09-19 04:50:00,2,44356,0,0.00,2,2,0,2,28303,50000,7096,47654,0,0,0,0,0.00,0.00,0.00,0.00
2013-09-19 05:00:00,2,42366,0,0.00,2,2,0,2,29325,50000,7599,43284,0,0,0,0,0.00,0.00,0.00,0.00
2013-09-19 05:10:00,2,45968,0,0.00,2,2,0,2,39341,50000,3659,45921,0,0,0,0,0.00,0.00,0.00,0.00
2013-09-19 05:20:00,2,40592,0,0.00,2,2,0,2,32857,50000,5856,37947,0,0,0,0,0.00,0.00,0.00,0.00
2013-09-19 05:30:00,2,43041,0,0.00,2,2,0,2,32768,50000,5504,44760,0,0,0,0,0.00,0.00,0.00,0.00
2013-09-19 05:40:00,2,46841,0,0.00,2,2,0,2,33770,50000,5041,49570,0,0,0,0,0.00,0.00,0.00,0.00
2013-09-19 05:50:00,2,46568,0,0.00,2,2,0,2,31806,50000,5992,49494,0,0,0,0,0.00,0.00,0.00,0.00
2013-09-19 06:00:00,2,43374,0,0.00,2,2,0,2,31207,50000,6499,46070,0,0,0,0,0.00,0.00,0.00,0.00
2013-09-19 06:10:00,2,48490,0,0.00,2,2,0,2,43248,50000,2236,50000,0,0,0,0,0.00,0.00,0.00,0.00
2013-09-19 06:20:00,2,44719,0,0.00,2,2,0,2,34797,50000,5930,46797,0,0,0,0,0.00,0.00,0.00,0.00
2013-09-19 06:30:00,2,48092,0,0.00,2,2,0,2,41833,50000,2728,50000,0,0,0,0,0.00,0.00,0.00,0.00
2013-09-19 06:40:00,2,46827,0,0.00,2,2,0,2,38524,50000,3893,48227,0,0,0,0,0.00,0.00,0.00,0.00
2013-09-19 06:50:00,2,49618,0,0.00,2,2,0,2,48316,50000,587,50000,0,0,0,0,0.00,0.00,0.00,0.00
2013-09-19 07:00:00,2,49690,0,0.00,2,2,0,2,47630,50000,704,50000,0,0,0,0,0.00,0.00,0.00,0.00
2013-09-19 07:10:00,2,47130,0,0.00,2,2,0,2,41907,50000,2811,48006,0,0,0,0,0.00,0.00,0.00,0.00
2013-09-19 07:20:00,2,49624,0,0.00,2,2,0,2,46360,50000,1089,50000,0,0,0,0,0.00,0.00,0.00,0.00
2013-09-19 07:30:00,2,49832,0,0.00,2,2,0,2,48319,50000,504,50000,0,0,0,0,0.00,0.00,0.00,0.00
2013-09-19 07:40:00,2,49960,0,0.00,2,2,0,2,49599,50000,120,50000,0,0,0,0,0.00,0.00,0.00,0.00
2013-09-19 07:50:00,2,49861,0,0.00,2,2,0,2,48614,50000,416,50000,0,0,0,0,0.00,0.00,0.00,0.00
2013-09-19 08:00:00,2,50000,0,0.00,2,2,0,2,50000,50000,0,50000,0,0,0,0,0.00,0.00,0.00,0.00
2013-09-19 08:10:00,2,50000,0,0.00,2,2,0,2,50000,50000,0,50000,0,0,0,0,0.00,0.00,0.00,0.00
2013-09-19 08:20:00,2,50000,0,0.00,2,2,0,2,50000,50000,0,50000,0,0,0,0,0.00,0.00,0.00,0.00
2013-09-19 08:30:00,2,50000,0,0.00,2,2,0,2,50000,50000,0,50000,0,0,0,0,0.00,0.00,0.00,0.00
2013-09-19 08:40:00,2,50000,0,0.00,2,2,0,2,50000,50000,0,50000,0,0,0,0,0.00,0.00,0.00,0.00
2013-09-19 08:50:00,2,49960,0,0.00,2,2,0,2,49605,50000,118,50000,0,0,0,0,0.00,0.00,0.00,0.00
2013-09-19 09:00:00,2,50000,0,0.00,2,2,0,2,50000,50000,0,50000,0,0,0,0,0.00,0.00,0.00,0.00
2013-09-19 09:10:00,2,50000,0,0.00,2,2,0,2,50000,50000,0,50000,0,0,0,0,0.00,0.00,0.00,0.00
2013-09-19 09:20:00,2,50000,0,0.00,2,2,0,2,50000,50000,0,50000,0,0,0,0,0.00,0.00,0.00,0.00
2013-09-19 09:30:00,2,50000,0,0.00,2,2,0,2,50000,50000,0,50000,0,0,0,0,0.00,0.00,0.00,0.00
2013-09-19 09:40:00,2,50000,0,0.00,2,2,0,2,50000,50000,0,50000,0,0,0,0,0.00,0.00,0.00,0.00
2013-09-19 09:50:00,2,50000,0,0.00,2,2,0,2,50000,50000,0,50000,0,0,0,0,0.00,0.00,0.00,0.00
2013-09-19 10:00:00,2,50000,0,0.00,2,2,0,2,50000,50000,0,50000,0,0,0,0,0.00,0.00,0.00,0.00
2013-09-19 10:10:00,2,50000,0,0.00,2,2,0,2,50000,50000,0,50000,0,0,0,0,0.00,0.00,0.00,0.00
2013-09-19 10:20:00,2,50000,0,0.00,2,2,0,2,50000,50000,0,50000,0,0,0,0,0.00,0.00,0.00,0.00
2013-09-19 10:30:00,2,50000,0,0.00,2,2,0,2,50000,50000,0,50000,0,0,0,0,0.00,0.00,0.00,0.00
2013-09-19 10:40:00,2,50000,0,0.00,2,2,0,2,50000,50000,0,50000,0,0,0,0,0.00,0.00,0.00,0.00
2013-09-19 10:50:00,2,50000,0,0.00,2,2,0,2,50000,50000,0,50000,0,0,0,0,0.00,0.00,0.00,0.00
2013-09-19 11:00:00,2,50000,0,0.00,2,2,0,2,50000,50000,0,50000,0,0,0,0,0.00,0.00,0.00,0.00
2013-09-19 11:10:00,2,50000,0,0.00,2,2,0,2,50000,50000,0,50000,0,0,0,0,0.00,0.00,0.00,0.00
2013-09-19 11:20:00,2,50000,0,0.00,2,2,0,2,50000,50000,0,50000,0,0,0,0,0.00,0.00,0.00,0.00
2013-09-19 11:30:00,2,50000,0,0.00,2,2,0,2,50000,50000,0,50000,0,0,0,0,0.00,0.00,0.00,0.00
2013-09-19 11:40:00,2,50000,0,0.00,2,2,0,2,50000,50000,0,50000,0,0,0,0,0.00,0.00,0.00,0.00
2013-09-19 11:50:00,2,50000,0,0.00,2,2,0,2,50000,50000,0,50000,0,0,0,0,0.00,0.00,0.00,0.00
2013-09-19 12:00:00,2,50000,0,0.00,2,2,0,2,50000,50000,0,50000,0,0,0,0,0.00,0.00,0.00,0.00
2013-09-19 12:10:00,2,50000,0,0.00,2,2,0,2,50000,50000,0,50000,0,0,0,0,0.00,0.00,0.00,0.00
2013-09-19 12:20:00,2,50000,0,0.00,2,2,0,2,50000,50000,0,50000,0,0,0,0,0.00,0.00,0.00,0.00
2013-09-19 12:30:00,2,50000,0,0.00,2,2,0,2,50000,50000,0,50000,0,0,0,0,0.00,0.00,0.00,0.00
2013-09-19 12:40:00,2,50000,0,0.00,2,2,0,2,50000,50000,0,50000,0,0,0,0,0.00,0.00,0.00,0.00
2013-09-19 12:50:00,2,50000,0,0.00,2,2,0,2,50000,50000,0,50000,0,0,0,0,0.00,0.00,0.00,0.00
2013-09-19 13:00:00,2,50000,0,0.00,2,2,0,2,50000,50000,0,50000,0,0,0,0,0.00,0.00,0.00,0.00
2013-09-19 13:10:00,2,50000,0,0.00,2,2,0,2,50000,50000,0,50000,0,0,0,0,0.00,0.00,0.00,0.00
2013-09-19 13:20:00,2,50000,0,0.00,2,2,0,2,50000,50000,0,50000,0,0,0,0,0.00,0.00,0.00,0.00
2013-09-19 13:30:00,2,50000,0,0.00,2,2,0,2,50000,50000,0,50000,0,0,0,0,0.00,0.00,0.00,0.00
2013-09-19 13:40:00,2,50000,0,0.00,2,2,0,2,50000,50000,0,50000,0,0,0,0,0.00,0.00,0.00,0.00
2013-09-19 13:50:00,2,50000,0,0.00,2,2,0,2,50000,50000,0,50000,0,0,0,0,0.00,0.00,0.00,0.00
2013-09-19 14:00:00,2,50000,0,0.00,2,2,0,2,50000,50000,0,50000,0,0,0,0,0.00,0.00,0.00,0.00
2013-09-19 14:10:00,2,50000,0,0.00,2,2,0,2,50000,50000,0,50000,0,0,0,0,0.00,0.00,0.00,0.00
2013-09-19 14:20:00,2,50000,0,0.00,2,2,0,2,50000,50000,0,50000,0,0,0,0,0.00,0.00,0.00,0.00
2013-09-19 14:30:00,2,50000,0,0.00,2,2,0,2,50000,50000,0,50000,0,0,0,0,0.00,0.00,0.00,0.00
2013-09-19 14:40:00,2,50000,0,0.00,2,2,0,2,50000,50000,0,50000,0,0,0,0,0.00,0.00,0.00,0.00
2013-09-19 14:50:00,2,50000,0,0.00,2,2,0,2,50000,50000,0,50000,0,0,0,0,0.00,0.00,0.00,0.00
2013-09-19 15:00:00,2,50000,0,0.00,2,2,0,2,50000,50000,0,50000,0,0,0,0,0.00,0.00,0.00,0.00
2013-09-19 15:10:00,2,50000,0,0.00,2,2,0,2,50000,50000,0,50000,0,0,0,0,0.00,0.00,0.00,0.00
2013-09-19 15:20:00,2,50000,0,0.00,2,2,0,2,50000,50000,0,50000,0,0,0,0,0.00,0.00,0.00,0.00
2013-09-19 15:30:00,2,50000,0,0.00,2,2,0,2,50000,50000,0,50000,0,0,0,0,0.00,0.00,0.00,0.00
2013-09-19 15:40:00,2,50000,0,0.00,2,2,0,2,50000,50000,0,50000,0,0,0,0,0.00,0.00,0.00,0.00
2013-09-19 15:50:00,2,50000,0,0.00,2,2,0,2,50000,50000,0,50000,0,0,0,0,0.00,0.00,0.00,0.00
2013-09-19 16:00:00,2,50000,0,0.00,2,2,0,2,50000,50000,0,50000,0,0,0,0,0.00,0.00,0.00,0.00
2013-09-19 16:10:00,2,50000,0,0.00,2,2,0,2,50000,50000,0,50000,0,0,0,0,0.00,0.00,0.00,0.00
2013-09-19 16:20:00,2,50000,0,0.00,2,2,0,2,50000,50000,0,50000,0,0,0,0,0.00,0.00,0.00,0.00
2013-09-19 16:30:00,2,50000,0,0.00,2,2,0,2,50000,50000,0,50000,0,0,0,0,0.00,0.00,0.00,0.00
2013-09-19 16:40:00,2,50000,0,0.00,2,2,0,2,50000,50000,0,50000,0,0,0,0,0.00,0.00,0.00,0.00
2013-09-19 16:50:00,2,50000,0,0.00,2,2,0,2,50000,50000,0,50000,0,0,0,0,0.00,0.00,0.00,0.00
2013-09-19 17:00:00,2,50000,0,0.00,2,2,0,2,50000,50000,0,50000,0,0,0,0,0.00,0.00,0.00,0.00
2013-09-19 17:10:00,2,50000,0,0.00,2,2,0,2,50000,50000,0,50000,0,0,0,0,0.00,0.00,0.00,0.00
2013-09-19 17:20:00,2,50000,0,0.00,2,2,0,2,50000,50000,0,50000,0,0,0,0,0.00,0.00,0.00,0.00
2013-09-19 17:30:00,2,50000,0,0.00,2,2,0,2,50000,50000,0,50000,0,0,0,0,0.00,0.00,0.00,0.00
2013-09-19 17:40:00,2,50000,0,0.00,2,2,0,2,50000,50000,0,50000,0,0,0,0,0.00,0.00,0.00,0.00
2013-09-19 17:50:00,2,50000,0,0.00,2,2,0,2,50000,50000,0,50000,0,0,0,0,0.00,0.00,0.00,0.00
2013-09-19 18:00:00,2,50000,0,0.00,2,2,0,2,50000,50000,0,50000,0,0,0,0,0.00,0.00,0.00,0.00
2013-09-19 18:10:00,2,50000,0,0.00,2,2,0,2,50000,50000,0,50000,0,0,0,0,0.00,0.00,0.00,0.00
2013-09-19 18:20:00,2,50000,0,0.00,2,2,0,2,50000,50000,0,50000,0,0,0,0,0.00,0.00,0.00,0.00
2013-09-19 18:30:00,2,50000,0,0.00,2,2,0,2,50000,50000,0,50000,0,0,0,0,0.00,0.00,0.00,0.00
2013-09-19 18:40:00,2,50000,0,0.00,2,2,0,2,50000,50000,0,50000,0,0,0,0,0.00,0.00,0.00,0.00
2013-09-19 18:50:00,2,50000,0,0.00,2,2,0,2,50000,50000,0,50000,0,0,0,0,0.00,0.00,0.00,0.00
2013-09-19 19:00:00,2,50000,0,0.00,2,2,0,2,50000,50000,0,50000,0,0,0,0,0.00,0.00,0.00,0.00
2013-09-19 19:10:00,2,50000,0,0.00,2,2,0,2,50000,50000,0,50000,0,0,0,0,0.00,0.00,0.00,0.00
2013-09-19 19:20:00,2,50000,0,0.00,2,2,0,2,50000,50000,0,50000,0,0,0,0,0.00,0.00,0.00,0.00
2013-09-19 19:30:00,2,50000,0,0.00,2,2,0,2,50000,50000,0,50000,0,0,0,0,0.00,0.00,0.00,0.00
2013-09-19 19:40:00,2,50000,0,0.00,2,2,0,2,50000,50000,0,50000,0,0,0,0,0.00,0.00,0.00,0.00
2013-09-19 19:50:00,2,50000,0,0.00,2,2,0,2,50000,50000,0,50000,0,0,0,0,0.00,0.00,0.00,0.00
2013-09-19 20:00:00,2,50000,0,0.00,2,2,0,2,50000,50000,0,50000,0,0,0,0,0.00,0.00,0.00,0.00
2013-09-19 20:10:00,2,50000,0,0.00,2,2,0,2,50000,50000,0,50000,0,0,0,0,0.00,0.00,0.00,0.00
2013-09-19 20:20:00,2,50000,0,0.00,2,2,0,2,50000,50000,0,50000,0,0,0,0,0.00,0.00,0.00,0.00
2013-09-19 20:30:00,2,50000,0,0.00,2,2,0,2,50000,50000,0,50000,0,0,0,0,0.00,0.00,0.00,0.00
2013-09-19 20:40:00,2,50000,0,0.00,2,2,0,2,50000,50000,0,50000,0,0,0,0,0.00,0.00,0.00,0.00
2013-09-19 20:50:00,2,50000,0,0.00,2,2,0,2,50000,50000,0,50000,0,0,0,0,0.00,0.00,0.00,0.00
2013-09-19 21:00:00,2,50000,0,0.00,2,2,0,2,50000,50000,0,50000,0,0,0,0,0.00,0.00,0.00,0.00
2013-09-19 21:10:00,2,50000,0,0.00,2,2,0,2,50000,50000,0,50000,0,0,0,0,0.00,0.00,0.00,0.00
2013-09-19 21:20:00,2,50000,0,0.00,2,2,0,2,50000,50000,0,50000,0,0,0,0,0.00,0.00,0.00,0.00
2013-09-19 21:30:00,2,50000,0,0.00,2,2,0,2,50000,50000,0,50000,0,0,0,0,0.00,0.00,0.00,0.00
2013-09-19 21:40:00,2,50000,0,0.00,2,2,0,2,50000,50000,0,50000,0,0,0,0,0.00,0.00,0.00,0.00
2013-09-19 21:50:00,2,50000,0,0.00,2,2,0,2,50000,50000,0,50000,0,0,0,0,0.00,0.00,0.00,0.00
2013-09-19 22:00:00,2,49964,0,0.00,2,2,0,2,49635,50000,110,50000,0,0,0,0,0.00,0.00,0.00,0.00
2013-09-19 22:10:00,2,50000,0,0.00,2,2,0,2,50000,50000,0,50000,0,0,0,0,0.00,0.00,0.00,0.00
2013-09-19 22:20:00,2,47533,0,0.00,2,2,0,2,37425,50000,3908,50000,0,0,0,0,0.00,0.00,0.00,0.00
2013-09-19 22:30:00,2,48161,0,0.00,2,2,0,2,41854,50000,2592,49626,0,0,0,0,0.00,0.00,0.00,0.00
2013-09-19 22:40:00,2,49413,0,0.00,2,2,0,2,47945,50000,899,50000,0,0,0,0,0.00,0.00,0.00,0.00
2013-09-19 22:50:00,2,50000,0,0.00,2,2,0,2,50000,50000,0,50000,0,0,0,0,0.00,0.00,0.00,0.00
2013-09-19 23:00:00,2,49900,0,0.00,2,2,0,2,49117,50000,262,50000,0,0,0,0,0.00,0.00,0.00,0.00
2013-09-19 23:10:00,2,47964,0,0.00,2,2,0,2,41604,50000,3345,50000,0,0,0,0,0.00,0.00,0.00,0.00
2013-09-19 23:20:00,2,43999,0,0.00,2,2,0,2,32915,50000,5146,44236,0,0,0,0,0.00,0.00,0.00,0.00
2013-09-19 23:30:00,2,47432,0,0.00,2,2,0,2,42247,50000,2865,47970,0,0,0,0,0.00,0.00,0.00,0.00
2013-09-19 23:40:00,2,44415,0,0.00,2,2,0,2,33799,50000,4596,45064,0,0,0,0,0.00,0.00,0.00,0.00
2013-09-19 23:50:00,2,49619,0,0.00,2,2,0,2,48219,50000,584,50000,0,0,0,0,0.00,0.00,0.00,0.00
